Regional Weather Roundup
Issued by NWS Charleston, SC

Current Version | Previous Version | Text Only | Print | Product List | Glossary Off
Versions: 1 2 3 4 5 6 7 8 9 10 11 12 13 14 15 16 17 18 19 20 21 22 23 24 25 26 27 28 29 30 31 32 33 34 35 36 37 38 39 40 41 42 43 44 45 46 47 48 49 50

330
ASUS42 KCHS 210327
RWRCHS

Regional Weather Roundup
National Weather Service Charleston SC
1000 PM EST SAT JAN 20 2018

NOTE: "fair" indicates few or no clouds below 12,000 feet with no
significant weather and/or obstructions to visibility.

Not all stations are quality controlled. Use data with caution,
especially dewpoint observations.

SCZ027-030-031-034>040-042>050-210400-
...Southeast South Carolina...

CITY           SKY/WX    TMP DP  RH WIND       PRES   REMARKS
N Charleston   FAIR      46  29  51 S5        30.27R
Waterfront Prk NOT AVBL
Mount Pleasant FAIR      48  32  53 SW6       30.27S
Johns Island   FAIR      50  34  53 SW8       30.27R
Pinopolis        N/A     48  28  46 SW6       30.18R
Moncks Corner  FAIR      39  30  70 CALM      30.26S
Summerville    FAIR      43  32  65 S3        30.27R
Beaufort MCAS  FAIR      48  35  60 S6        30.27R
Beaufort Arpt  FAIR      46  34  61 S5        30.27R
Hilton Head Is FAIR      50  30  46 SW7       30.29R
Walterboro     FAIR      45  32  61 CALM      30.27R
Allendale      FAIR      43  39  87 CALM      30.25R

...Southern Midlands and Pee Dee...

CITY           SKY/WX    TMP DP  RH WIND       PRES   REMARKS
Georgetown     FAIR      43  28  56 SW5       30.27S
Kingstree      FAIR      36  32  87 CALM      30.25S
Orangeburg     FAIR      41  35  79 CALM      30.24S
Barnwell         N/A     41  39  93 CALM      30.25R
Aiken          FAIR      37  34  87 CALM      30.27R
Manning        FAIR      39  30  70 MISG      30.25S
Columbia       FAIR      42  34  73 CALM      30.23S
Sumter         FAIR      40  33  76 CALM      30.22R
Florence       FAIR      40  32  73 W5        30.24R WCI  37
Myrtle Beach   FAIR      48  32  53 SW7       30.26R
N Myrtle Beach FAIR      40  35  83 SW6       30.24R WCI  36

$$

GAZ063-065-086>088-099>101-113>116-118-119-134>141-150-210400-
...Southeast Georgia...

CITY           SKY/WX    TMP DP  RH WIND       PRES   REMARKS
Savannah Arpt  FAIR      48  32  53 S5        30.29R
Hunter AAF     FAIR      47  32  54 CALM      30.25S
Fort Stewart   MOCLDY    44  34  67 CALM      30.25S
Statesboro     FAIR      45  35  69 SW3       30.27R
Sylvania       FAIR      48  41  76 CALM      30.27S
Claxton        FAIR      45  37  74 CALM      30.27F

...CSRA, Central and far Southeast Georgia...

CITY           SKY/WX    TMP DP  RH WIND       PRES   REMARKS
Thomson        FAIR      40  36  83 CALM      30.29R
Augusta-Bush   FAIR      40  36  86 CALM      30.24R
Augusta-Daniel FAIR      52  38  58 CALM      30.24S
Swainsboro     FAIR      45  41  87 CALM      30.26S
Vidalia        FAIR      50  37  62 CALM      30.26F
Eastman        FAIR      47  36  66 CALM      30.29S
Hazlehurst     FAIR      50  27  40 CALM      30.26S
Alma           FAIR      43  34  70 CALM      30.27F
Waycross       FAIR      48  29  47 CALM      30.28S
Jesup          FAIR      46  28  49 CALM      30.28S
Baxley         FAIR      43  30  61 CALM      30.27S
Brunswick      FAIR      43  34  70 CALM      30.29S
Saint Simons   FAIR      48  35  60 CALM      30.28F

$$

SCZ027-028-034-036>038-045-046-048>050-GAZ119-141-210400-
...Lake and Supplemental Coastal Observations...

STATION/POSITION TIME  TEMP    WIND        PRES    WAVE   SWELL
                       AIR SEA DIR/SP/G            HT/PER HT/PER/DIR
                 (UTC) (F)     (DEG/KT/KT) (MB)    (FT/S) (FT/S/D)
Winyah Bay       0245   49     240/  6     1025.0R
Lake Murray      0250   45        CALM     1023.0R
ACE Basin NERRS  0245   44        CALM     1025.0S
Fort Pulaski     0300   47 45  200/  2/  4 1025.3
Sapelo Island    0300   47     180/  4     1025.0

$$

ANZ835-935-AMZ111-154-330-350-352-354-370-450-454-472-210400-
...C-MAN and Buoy Observations...

STATION/POSITION TIME  TEMP    WIND        PRES    WAVE   SWELL
                       AIR SEA DIR/SP/G            HT/PER HT/PER/DIR
                 (UTC) (F)     (DEG/KT/KT) (MB)    (FT/S) (FT/S/D)
Buoy 41004       0310   62 70  240/ 16/ 17 1024.7
Buoy 41008       0250   52 51  180/  8/  8 1025.1F   1/10   2/ 80/10
Folly Beach CMAN 0300   50     240/  7/  9 1025.5R
Capers Nearshore 0308   46 49  240/  8/ 12 1024.6R
Fripp Nearshore  0308   46 46  230/  8/ 12 1024.6R


STATION/POSITION TIME  TEMP    WIND        PRES    WAVE   SWELL
                       AIR SEA DIR/SP/G            HT/PER HT/PER/DIR
                 (UTC) (F)     (DEG/KT/KT) (MB)    (FT/S) (FT/S/D)
5E St. Marys GA  0300      49                N/A     1/11
Frying Pan Buoy  0310   58 57  250/ 14/ 16 1024.0
Buoy 41025       0310   61 69  260/ 21/ 27 1022.4
Cape Lookout NC  0300          250/ 13/ 16 1023.2R
Buoy 41002       0250   67 70  240/ 14/ 17 1025.2R   4/11   2/ 90/11
Buoy 41010       NOT AVBL
St Augustine FL  0300   54 51  170/  5/  5 1025.7R


$$




USA.gov is the U.S. government's official web portal to all federal, state and local government web resources and services.